Location: ?nandapuram
(16.5396°N, 81.1430°E)
Time: 10:03:02
(UTC+00:00)

Cosmos 546 - Pass Details

Date: 14 April 2026
Orbit: 466 x 486 km, 50.6° (Epoch: 12 May)

Event Time Altitude Azimuth Distance (km) Brightness Sun altitude
Rises 23:39:36 0° 318° (NW) 2,513 7.9 -10.4°
Reaches altitude 10° 23:41:46 10° 316° (NW) 1,639 6.9 -9.9°
Maximum altitude 23:45:27 71° 232° (SW) 507 4.4 -9.0°
Drops below altitude 10° 23:49:10 10° 148° (SSE) 1,648 7.5 -8.2°
Sets 23:51:20 0° 146° (SE) 2,528 8.5 -7.7°
